Time,TemperatureF,DewpointF,PressureIn,WindDirection,WindDirectionDegrees,WindSpeedMPH,WindSpeedGustMPH,Humidity,HourlyPrecipIn,Conditions,Clouds,dailyrainin,SoftwareType,DateUTC
2013-05-03 00:03:00,39.0,34.0,30.23,NNW,347,5.0,11.0,83,0.00,,,0.00,,2013-05-03 04:03:00,
2013-05-03 00:13:00,39.0,34.0,30.23,NNW,347,5.0,11.0,83,0.00,,,0.00,,2013-05-03 04:13:00,
2013-05-03 00:23:00,39.0,34.0,30.23,NNW,333,4.0,9.0,82,0.00,,,0.00,,2013-05-03 04:23:00,
2013-05-03 00:32:00,39.0,34.0,30.23,NNW,347,4.0,12.0,83,0.00,,,0.00,,2013-05-03 04:32:00,
2013-05-03 00:43:00,39.0,34.0,30.23,NNW,347,4.0,12.0,83,0.00,,,0.00,,2013-05-03 04:43:00,
2013-05-03 00:53:00,38.0,33.0,30.23,NNE,12,7.0,10.0,83,0.00,,,0.00,,2013-05-03 04:53:00,
2013-05-03 01:02:00,38.0,33.0,30.23,North,9,8.0,15.0,83,0.00,,,0.00,,2013-05-03 05:02:00,
2013-05-03 01:12:00,38.0,33.0,30.23,North,9,8.0,15.0,83,0.00,,,0.00,,2013-05-03 05:12:00,
2013-05-03 01:21:00,38.0,33.0,30.22,NNW,338,8.0,11.0,83,0.00,,,0.00,,2013-05-03 05:21:00,
2013-05-03 01:32:00,38.0,33.0,30.22,North,354,3.0,14.0,83,0.00,,,0.00,,2013-05-03 05:32:00,
2013-05-03 01:42:00,38.0,33.0,30.22,North,354,3.0,14.0,83,0.00,,,0.00,,2013-05-03 05:42:00,
2013-05-03 01:52:00,38.0,33.0,30.22,NNW,339,3.0,10.0,83,0.00,,,0.00,,2013-05-03 05:52:00,
2013-05-03 02:02:00,38.0,33.0,30.22,NNW,343,7.0,7.0,83,0.00,,,0.00,,2013-05-03 06:02:00,
2013-05-03 02:12:00,38.0,33.0,30.22,NNW,343,7.0,7.0,83,0.00,,,0.00,,2013-05-03 06:12:00,
2013-05-03 02:21:00,38.0,33.0,30.21,North,0,4.0,8.0,83,0.00,,,0.00,,2013-05-03 06:21:00,
2013-05-03 02:32:00,38.0,33.0,30.21,NNE,24,3.0,6.0,83,0.00,,,0.00,,2013-05-03 06:32:00,
2013-05-03 02:42:00,38.0,33.0,30.21,NNE,24,3.0,6.0,83,0.00,,,0.00,,2013-05-03 06:42:00,
2013-05-03 02:52:00,38.0,33.0,30.20,North,0,2.0,4.0,83,0.00,,,0.00,,2013-05-03 06:52:00,
2013-05-03 03:01:00,38.0,33.0,30.19,North,0,0.0,3.0,83,0.00,,,0.00,,2013-05-03 07:01:00,
2013-05-03 03:11:00,38.0,33.0,30.19,North,0,0.0,3.0,83,0.00,,,0.00,,2013-05-03 07:11:00,
2013-05-03 03:21:00,38.0,33.0,30.19,North,0,0.0,3.0,83,0.00,,,0.00,,2013-05-03 07:21:00,
2013-05-03 03:32:00,38.0,33.0,30.19,North,0,0.0,3.0,83,0.00,,,0.00,,2013-05-03 07:32:00,
2013-05-03 03:42:00,38.0,33.0,30.19,North,0,0.0,3.0,83,0.00,,,0.00,,2013-05-03 07:42:00,
2013-05-03 03:52:00,38.0,33.0,30.19,North,0,2.0,3.0,83,0.00,,,0.00,,2013-05-03 07:52:00,
2013-05-03 04:02:00,38.0,33.0,30.18,North,0,1.0,3.0,83,0.00,,,0.00,,2013-05-03 08:02:00,
2013-05-03 04:12:00,38.0,33.0,30.18,North,0,1.0,3.0,83,0.00,,,0.00,,2013-05-03 08:12:00,
2013-05-03 04:21:00,38.0,33.0,30.18,North,0,1.0,3.0,83,0.00,,,0.00,,2013-05-03 08:21:00,
2013-05-03 04:32:00,38.0,33.0,30.18,North,0,0.0,3.0,83,0.00,,,0.00,,2013-05-03 08:32:00,
2013-05-03 04:42:00,38.0,33.0,30.18,North,0,0.0,3.0,83,0.00,,,0.00,,2013-05-03 08:42:00,
2013-05-03 04:53:00,38.0,34.0,30.18,North,0,3.0,4.0,84,0.00,,,0.00,,2013-05-03 08:53:00,
2013-05-03 05:01:00,38.0,34.0,30.18,North,0,1.0,3.0,84,0.00,,,0.00,,2013-05-03 09:01:00,
2013-05-03 05:12:00,38.0,34.0,30.18,North,0,1.0,3.0,84,0.00,,,0.00,,2013-05-03 09:12:00,
2013-05-03 05:21:00,38.0,34.0,30.18,North,0,3.0,3.0,85,0.00,,,0.00,,2013-05-03 09:21:00,
2013-05-03 05:32:00,38.0,34.0,30.18,North,0,3.0,4.0,85,0.00,,,0.00,,2013-05-03 09:32:00,
2013-05-03 05:42:00,38.0,34.0,30.18,North,0,3.0,4.0,85,0.00,,,0.00,,2013-05-03 09:42:00,
2013-05-03 05:53:00,38.0,34.0,30.17,North,0,2.0,5.0,86,0.00,,,0.00,,2013-05-03 09:53:00,
2013-05-03 06:03:00,38.0,34.0,30.18,North,0,1.0,3.0,86,0.00,,,0.00,,2013-05-03 10:03:00,
2013-05-03 06:12:00,38.0,34.0,30.18,North,0,1.0,3.0,86,0.00,,,0.00,,2013-05-03 10:12:00,
2013-05-03 06:22:00,38.0,34.0,30.18,North,0,3.0,4.0,86,0.00,,,0.00,,2013-05-03 10:22:00,
2013-05-03 06:32:00,38.0,34.0,30.18,North,0,1.0,4.0,86,0.00,,,0.00,,2013-05-03 10:32:00,
2013-05-03 06:42:00,38.0,34.0,30.18,North,0,1.0,4.0,86,0.00,,,0.00,,2013-05-03 10:42:00,
2013-05-03 06:52:00,38.0,34.0,30.18,North,0,1.0,3.0,87,0.00,,,0.00,,2013-05-03 10:52:00,
2013-05-03 07:02:00,37.0,34.0,30.18,North,0,2.0,4.0,88,0.00,,,0.00,,2013-05-03 11:02:00,
2013-05-03 07:11:00,37.0,34.0,30.18,North,0,2.0,4.0,88,0.00,,,0.00,,2013-05-03 11:11:00,
2013-05-03 07:22:00,37.0,34.0,30.18,North,0,2.0,4.0,88,0.00,,,0.00,,2013-05-03 11:22:00,
2013-05-03 07:32:00,38.0,35.0,30.18,North,0,3.0,5.0,89,0.00,,,0.00,,2013-05-03 11:32:00,
2013-05-03 07:42:00,38.0,35.0,30.18,North,0,3.0,5.0,89,0.00,,,0.00,,2013-05-03 11:42:00,
2013-05-03 07:52:00,38.0,35.0,30.18,North,0,3.0,5.0,89,0.00,,,0.00,,2013-05-03 11:52:00,
2013-05-03 08:02:00,38.0,35.0,30.19,North,10,0.0,2.0,88,0.00,,,0.00,,2013-05-03 12:02:00,
2013-05-03 08:11:00,38.0,35.0,30.19,North,10,0.0,2.0,88,0.00,,,0.00,,2013-05-03 12:11:00,
2013-05-03 08:21:00,39.0,36.0,30.18,North,10,1.0,3.0,88,0.00,,,0.00,,2013-05-03 12:21:00,
2013-05-03 08:32:00,40.0,37.0,30.18,North,10,2.0,3.0,88,0.00,,,0.00,,2013-05-03 12:32:00,
2013-05-03 08:42:00,40.0,37.0,30.18,North,10,2.0,3.0,88,0.00,,,0.00,,2013-05-03 12:42:00,
2013-05-03 08:52:00,40.0,36.0,30.18,North,10,2.0,4.0,85,0.00,,,0.00,,2013-05-03 12:52:00,
2013-05-03 09:01:00,41.0,37.0,30.18,North,9,2.0,3.0,85,0.00,,,0.00,,2013-05-03 13:01:00,
2013-05-03 09:11:00,41.0,37.0,30.18,North,9,2.0,3.0,85,0.00,,,0.00,,2013-05-03 13:11:00,
2013-05-03 09:22:00,42.0,38.0,30.17,NNW,345,2.0,4.0,85,0.00,,,0.00,,2013-05-03 13:22:00,
2013-05-03 09:32:00,44.0,39.0,30.16,North,6,2.0,5.0,82,0.00,,,0.00,,2013-05-03 13:32:00,
2013-05-03 09:42:00,44.0,39.0,30.16,North,6,2.0,5.0,82,0.00,,,0.00,,2013-05-03 13:42:00,
2013-05-03 09:52:00,44.0,38.0,30.16,NNW,330,4.0,6.0,78,0.00,,,0.00,,2013-05-03 13:52:00,
2013-05-03 10:02:00,45.0,39.0,30.16,NW,319,5.0,6.0,78,0.00,,,0.00,,2013-05-03 14:02:00,
2013-05-03 10:11:00,45.0,39.0,30.16,NW,319,5.0,6.0,78,0.00,,,0.00,,2013-05-03 14:11:00,
2013-05-03 10:22:00,46.0,40.0,30.16,NW,322,4.0,5.0,78,0.00,,,0.00,,2013-05-03 14:22:00,
2013-05-03 10:32:00,48.0,40.0,30.15,NW,314,5.0,6.0,74,0.00,,,0.00,,2013-05-03 14:32:00,
2013-05-03 10:42:00,48.0,40.0,30.15,NW,314,5.0,6.0,74,0.00,,,0.00,,2013-05-03 14:42:00,
2013-05-03 10:52:00,50.0,41.0,30.15,NW,309,6.0,6.0,72,0.00,,,0.00,,2013-05-03 14:52:00,
2013-05-03 11:01:00,50.0,41.0,30.15,NW,320,3.0,6.0,72,0.00,,,0.00,,2013-05-03 15:01:00,
2013-05-03 11:11:00,50.0,41.0,30.15,NW,320,3.0,6.0,72,0.00,,,0.00,,2013-05-03 15:11:00,
2013-05-03 11:22:00,52.0,41.0,30.14,NW,308,5.0,7.0,67,0.00,,,0.00,,2013-05-03 15:22:00,
2013-05-03 11:32:00,54.0,43.0,30.14,NW,320,4.0,7.0,66,0.00,,,0.00,,2013-05-03 15:32:00,
2013-05-03 11:43:00,54.0,43.0,30.14,NW,320,4.0,7.0,66,0.00,,,0.00,,2013-05-03 15:43:00,
2013-05-03 11:53:00,55.0,43.0,30.13,NNW,346,4.0,8.0,64,0.00,,,0.00,,2013-05-03 15:53:00,
2013-05-03 12:03:00,56.0,43.0,30.13,North,350,4.0,8.0,61,0.00,,,0.00,,2013-05-03 16:03:00,
2013-05-03 12:13:00,56.0,43.0,30.13,North,350,4.0,8.0,61,0.00,,,0.00,,2013-05-03 16:13:00,
2013-05-03 12:23:00,58.0,45.0,30.13,NW,323,3.0,8.0,61,0.00,,,0.00,,2013-05-03 16:23:00,
2013-05-03 12:33:00,59.0,45.0,30.12,NNW,347,3.0,8.0,59,0.00,,,0.00,,2013-05-03 16:33:00,
2013-05-03 12:42:00,59.0,45.0,30.12,NNW,347,3.0,8.0,59,0.00,,,0.00,,2013-05-03 16:42:00,
2013-05-03 12:52:00,58.0,43.0,30.11,NNW,346,5.0,10.0,58,0.00,,,0.00,,2013-05-03 16:52:00,
2013-05-03 13:02:00,58.0,43.0,30.11,NNW,342,7.0,9.0,58,0.00,,,0.00,,2013-05-03 17:02:00,
2013-05-03 13:12:00,58.0,43.0,30.11,NNW,342,7.0,9.0,58,0.00,,,0.00,,2013-05-03 17:12:00,
2013-05-03 13:23:00,58.0,43.0,30.11,NNW,342,7.0,9.0,58,0.00,,,0.00,,2013-05-03 17:23:00,
2013-05-03 13:32:00,59.0,45.0,30.11,NNW,346,4.0,9.0,60,0.00,,,0.00,,2013-05-03 17:32:00,
2013-05-03 13:42:00,59.0,45.0,30.11,NNW,346,4.0,9.0,60,0.00,,,0.00,,2013-05-03 17:42:00,
2013-05-03 13:52:00,62.0,47.0,30.10,NNW,337,3.0,8.0,58,0.00,,,0.00,,2013-05-03 17:52:00,
2013-05-03 14:01:00,62.0,47.0,30.10,NNW,337,3.0,8.0,58,0.00,,,0.00,,2013-05-03 18:01:00,
2013-05-03 14:12:00,62.0,47.0,30.10,NNW,337,3.0,8.0,58,0.00,,,0.00,,2013-05-03 18:12:00,
2013-05-03 14:21:00,63.0,47.0,30.09,North,352,5.0,9.0,56,0.00,,,0.00,,2013-05-03 18:21:00,
2013-05-03 14:32:00,65.0,47.0,30.09,North,11,5.0,10.0,53,0.00,,,0.00,,2013-05-03 18:32:00,
2013-05-03 14:42:00,65.0,47.0,30.09,North,11,5.0,10.0,53,0.00,,,0.00,,2013-05-03 18:42:00,
2013-05-03 14:51:00,65.0,47.0,30.09,North,11,5.0,10.0,53,0.00,,,0.00,,2013-05-03 18:51:00,
2013-05-03 15:01:00,65.0,48.0,30.09,North,359,7.0,7.0,54,0.00,,,0.00,,2013-05-03 19:01:00,
2013-05-03 15:11:00,65.0,48.0,30.09,North,359,7.0,7.0,54,0.00,,,0.00,,2013-05-03 19:11:00,
2013-05-03 15:21:00,67.0,48.0,30.08,NNW,343,6.0,10.0,51,0.00,,,0.00,,2013-05-03 19:21:00,
2013-05-03 15:32:00,66.0,48.0,30.08,North,356,7.0,7.0,52,0.00,,,0.00,,2013-05-03 19:32:00,
2013-05-03 15:42:00,66.0,48.0,30.08,North,356,7.0,7.0,52,0.00,,,0.00,,2013-05-03 19:42:00,
2013-05-03 15:52:00,67.0,49.0,30.08,North,351,5.0,8.0,52,0.00,,,0.00,,2013-05-03 19:52:00,
2013-05-03 16:02:00,67.0,49.0,30.07,North,0,4.0,7.0,52,0.00,,,0.00,,2013-05-03 20:02:00,
2013-05-03 16:12:00,67.0,49.0,30.07,North,0,4.0,7.0,52,0.00,,,0.00,,2013-05-03 20:12:00,
2013-05-03 16:21:00,70.0,52.0,30.07,North,10,0.0,6.0,52,0.00,,,0.00,,2013-05-03 20:21:00,
2013-05-03 16:32:00,71.0,51.0,30.06,NNE,14,4.0,8.0,50,0.00,,,0.00,,2013-05-03 20:32:00,
2013-05-03 16:42:00,71.0,51.0,30.06,NNE,14,4.0,8.0,50,0.00,,,0.00,,2013-05-03 20:42:00,
2013-05-03 16:52:00,71.0,51.0,30.06,NNE,14,4.0,8.0,50,0.00,,,0.00,,2013-05-03 20:52:00,
2013-05-03 17:01:00,72.0,50.0,30.06,NE,35,4.0,7.0,46,0.00,,,0.00,,2013-05-03 21:01:00,
2013-05-03 17:11:00,72.0,50.0,30.06,NE,35,4.0,7.0,46,0.00,,,0.00,,2013-05-03 21:11:00,
2013-05-03 17:22:00,72.0,52.0,30.05,North,10,4.0,7.0,49,0.00,,,0.00,,2013-05-03 21:22:00,
2013-05-03 17:33:00,72.0,50.0,30.06,NNE,22,3.0,7.0,46,0.00,,,0.00,,2013-05-03 21:33:00,
2013-05-03 17:42:00,72.0,50.0,30.06,NNE,22,3.0,7.0,46,0.00,,,0.00,,2013-05-03 21:42:00,
2013-05-03 17:53:00,72.0,51.0,30.05,NNE,17,3.0,4.0,47,0.00,,,0.00,,2013-05-03 21:53:00,
2013-05-03 18:03:00,72.0,51.0,30.05,NNE,17,3.0,4.0,47,0.00,,,0.00,,2013-05-03 22:03:00,
2013-05-03 18:13:00,72.0,51.0,30.05,NNE,17,3.0,4.0,47,0.00,,,0.00,,2013-05-03 22:13:00,
2013-05-03 18:22:00,70.0,52.0,30.05,NNE,16,3.0,4.0,53,0.00,,,0.00,,2013-05-03 22:22:00,
2013-05-03 18:32:00,70.0,50.0,30.06,NNE,17,2.0,4.0,50,0.00,,,0.00,,2013-05-03 22:32:00,
2013-05-03 18:42:00,70.0,50.0,30.06,NNE,17,2.0,4.0,50,0.00,,,0.00,,2013-05-03 22:42:00,
2013-05-03 18:52:00,70.0,53.0,30.06,NNE,17,0.0,1.0,54,0.00,,,0.00,,2013-05-03 22:52:00,
2013-05-03 19:02:00,69.0,52.0,30.06,NNE,17,1.0,3.0,55,0.00,,,0.00,,2013-05-03 23:02:00,
2013-05-03 19:11:00,69.0,52.0,30.06,NNE,17,1.0,3.0,55,0.00,,,0.00,,2013-05-03 23:11:00,
2013-05-03 19:22:00,70.0,50.0,30.05,NNE,17,2.0,3.0,50,0.00,,,0.00,,2013-05-03 23:22:00,
2013-05-03 19:31:00,71.0,50.0,30.05,NNE,17,3.0,3.0,48,0.00,,,0.00,,2013-05-03 23:31:00,
2013-05-03 19:41:00,71.0,50.0,30.05,NNE,17,3.0,3.0,48,0.00,,,0.00,,2013-05-03 23:41:00,
2013-05-03 19:52:00,70.0,50.0,30.05,NNE,17,1.0,3.0,50,0.00,,,0.00,,2013-05-03 23:52:00,
2013-05-03 20:01:00,68.0,50.0,30.05,NNE,17,1.0,3.0,53,0.00,,,0.00,,2013-05-04 00:01:00,
2013-05-03 20:11:00,68.0,50.0,30.05,NNE,17,1.0,3.0,53,0.00,,,0.00,,2013-05-04 00:11:00,
2013-05-03 20:23:00,67.0,51.0,30.06,NNE,17,0.0,3.0,56,0.00,,,0.00,,2013-05-04 00:23:00,
2013-05-03 20:32:00,66.0,50.0,30.07,NNE,17,0.0,0.0,56,0.00,,,0.00,,2013-05-04 00:32:00,
2013-05-03 20:42:00,66.0,50.0,30.07,NNE,17,0.0,0.0,56,0.00,,,0.00,,2013-05-04 00:42:00,
2013-05-03 20:52:00,65.0,49.0,30.07,NNE,17,0.0,0.0,56,0.00,,,0.00,,2013-05-04 00:52:00,
2013-05-03 21:01:00,64.0,49.0,30.07,NNE,17,0.0,1.0,59,0.00,,,0.00,,2013-05-04 01:01:00,
2013-05-03 21:11:00,64.0,49.0,30.07,NNE,17,0.0,1.0,59,0.00,,,0.00,,2013-05-04 01:11:00,
2013-05-03 21:21:00,63.0,49.0,30.08,NNE,17,0.0,2.0,61,0.00,,,0.00,,2013-05-04 01:21:00,
2013-05-03 21:32:00,62.0,48.0,30.08,NNE,17,0.0,0.0,61,0.00,,,0.00,,2013-05-04 01:32:00,
2013-05-03 21:42:00,62.0,48.0,30.08,NNE,17,0.0,0.0,61,0.00,,,0.00,,2013-05-04 01:42:00,
2013-05-03 21:52:00,62.0,49.0,30.09,NNE,17,0.0,0.0,63,0.00,,,0.00,,2013-05-04 01:52:00,
2013-05-03 22:02:00,61.0,50.0,30.09,NNE,17,0.0,0.0,67,0.00,,,0.00,,2013-05-04 02:02:00,
2013-05-03 22:11:00,61.0,50.0,30.09,NNE,17,0.0,0.0,67,0.00,,,0.00,,2013-05-04 02:11:00,
2013-05-03 22:21:00,60.0,50.0,30.10,NNE,17,1.0,2.0,69,0.00,,,0.00,,2013-05-04 02:21:00,
2013-05-03 22:32:00,59.0,49.0,30.10,NNE,17,0.0,1.0,70,0.00,,,0.00,,2013-05-04 02:32:00,
2013-05-03 22:42:00,59.0,49.0,30.10,NNE,17,0.0,1.0,70,0.00,,,0.00,,2013-05-04 02:42:00,
2013-05-03 22:52:00,59.0,49.0,30.10,NNE,17,0.0,1.0,70,0.00,,,0.00,,2013-05-04 02:52:00,
2013-05-03 23:02:00,58.0,50.0,30.10,NNE,17,0.0,1.0,74,0.00,,,0.00,,2013-05-04 03:02:00,
2013-05-03 23:11:00,58.0,50.0,30.10,NNE,17,0.0,1.0,74,0.00,,,0.00,,2013-05-04 03:11:00,
2013-05-03 23:22:00,58.0,50.0,30.10,NNE,17,0.0,0.0,74,0.00,,,0.00,,2013-05-04 03:22:00,
2013-05-03 23:33:00,60.0,51.0,30.10,NNE,17,0.0,2.0,73,0.00,,,0.00,,2013-05-04 03:33:00,
2013-05-03 23:43:00,60.0,51.0,30.10,NNE,17,0.0,2.0,73,0.00,,,0.00,,2013-05-04 03:43:00,
2013-05-03 23:52:00,59.0,50.0,30.11,NNE,17,0.0,1.0,73,0.00,,,0.00,,2013-05-04 03:52:00,